| time (UTC) | temp F | wind direction | speed knots | gust knots | rain 1hr in | rain 24hr in | rain mn in | humidity % | barometer mb |
| 20260903003113 | 55 | 211 | 4.3 | 8.7 | 0.03 | 0.38 | 0.38 | 93 | 1007.7 |
| 20260903001606 | 55 | 215 | 4.3 | 8.7 | 0.03 | 0.38 | 0.38 | 93 | 1007.7 |
| 20260902234609 | 55 | 240 | 4.3 | 13.0 | 0.02 | 0.36 | 0.36 | 92 | 1007.5 |
| 20260902233057 | 56 | 195 | 5.2 | 16.5 | 0.01 | 0.35 | 0.35 | 92 | 1007.2 |
| 20260902231603 | 56 | 209 | 6.1 | 13.9 | 0.01 | 0.35 | 0.35 | 91 | 1007.2 |
| 20260902230104 | 56 | 238 | 7.0 | 16.5 | 0.00 | 0.34 | 0.34 | 91 | 1006.9 |
| 20260902224625 | 56 | 203 | 8.7 | 18.2 | 0.00 | 0.34 | 0.34 | 90 | 1006.8 |
| 20260902223100 | 56 | 182 | 7.8 | 14.8 | 0.00 | 0.34 | 0.34 | 90 | 1006.8 |
| 20260902221557 | 56 | 205 | 7.0 | 14.8 | 0.00 | 0.34 | 0.34 | 90 | 1006.9 |
| 20260902220101 | 56 | 230 | 7.8 | 16.5 | 0.01 | 0.34 | 0.34 | 90 | 1006.7 |
| 20260902214604 | 56 | 183 | 6.1 | 12.2 | 0.01 | 0.34 | 0.34 | 90 | 1006.8 |
| 20260902213106 | 56 | 190 | 5.2 | 13.9 | 0.02 | 0.34 | 0.34 | 91 | 1006.8 |
| 20260902211558 | 56 | 225 | 7.0 | 14.8 | 0.04 | 0.34 | 0.34 | 91 | 1006.8 |
| 20260902210108 | 56 | 181 | 6.1 | 13.0 | 0.06 | 0.33 | 0.33 | 90 | 1006.9 |
| 20260902204603 | 56 | 163 | 4.3 | 7.8 | 0.10 | 0.33 | 0.33 | 92 | 1006.7 |
| 20260902203115 | 55 | 140 | 3.5 | 7.8 | 0.15 | 0.32 | 0.32 | 92 | 1006.5 |
| 20260902201602 | 55 | 173 | 3.5 | 7.8 | 0.16 | 0.30 | 0.30 | 91 | 1006.6 |
| 20260902200105 | 56 | 162 | 2.6 | 7.8 | 0.15 | 0.27 | 0.27 | 91 | 1006.6 |
| 20260902194604 | 55 | 183 | 2.6 | 7.0 | 0.13 | 0.23 | 0.23 | 90 | 1006.9 |
| 20260902193100 | 56 | 199 | 4.3 | 9.6 | 0.07 | 0.16 | 0.16 | 89 | 1007.0 |
| 20260902191557 | 56 | 175 | 3.5 | 9.6 | 0.07 | 0.14 | 0.14 | 89 | 1007.0 |
| 20260902190114 | 56 | 170 | 5.2 | 10.4 | 0.06 | 0.11 | 0.11 | 89 | 1006.9 |
| 20260902184600 | 56 | 175 | 6.1 | 10.4 | 0.07 | 0.10 | 0.10 | 89 | 1007.1 |
| 20260902183103 | 56 | 175 | 4.3 | 12.2 | 0.08 | 0.09 | 0.09 | 89 | 1007.3 |
| 20260902181557 | 56 | 187 | 2.6 | 7.0 | 0.07 | 0.07 | 0.07 | 88 | 1007.8 |
| 20260902174605 | 57 | 213 | 0.9 | 2.6 | 0.03 | 0.03 | 0.03 | 86 | 1007.7 |
| 20260902173107 | 58 | 226 | 0.9 | 4.3 | 0.01 | 0.01 | 0.01 | 81 | 1007.5 |
| 20260902171609 | 60 | 215 | 1.7 | 5.2 | 0.00 | 0.00 | 0.00 | 74 | 1007.3 |
| 20260902170109 | 61 | 208 | 3.5 | 7.0 | 0.00 | 0.00 | 0.00 | 71 | 1007.2 |
| 20260902164559 | 61 | 162 | 3.5 | 7.8 | 0.00 | 0.00 | 0.00 | 68 | 1007.0 |
| 20260902163055 | 61 | 217 | 3.5 | 7.8 | 0.00 | 0.00 | 0.00 | 68 | 1007.0 |
| 20260902161605 | 61 | 152 | 4.3 | 8.7 | 0.00 | 0.00 | 0.00 | 70 | 1007.0 |
| 20260902160109 | 60 | 208 | 4.3 | 8.7 | 0.00 | 0.00 | 0.00 | 70 | 1007.1 |
| 20260902154603 | 60 | 167 | 3.5 | 7.8 | 0.00 | 0.00 | 0.00 | 72 | 1007.2 |
| 20260902153053 | 59 | 182 | 2.6 | 5.2 | 0.00 | 0.00 | 0.00 | 74 | 1007.3 |
| 20260902151611 | 59 | 194 | 2.6 | 7.8 | 0.00 | 0.00 | 0.00 | 76 | 1007.5 |
| 20260902144555 | 58 | 71 | 2.6 | 7.0 | 0.00 | 0.00 | 0.00 | 76 | 1007.8 |
| 20260902143055 | 58 | 136 | 1.7 | 5.2 | 0.00 | 0.00 | 0.00 | 76 | 1008.0 |
| 20260902141553 | 58 | 167 | 1.7 | 4.3 | 0.00 | 0.00 | 0.00 | 77 | 1008.1 |
| 20260902134611 | 58 | 180 | 1.7 | 3.5 | 0.00 | 0.00 | 0.00 | 77 | 1008.4 |
| 20260902133104 | 58 | 157 | 3.5 | 7.8 | 0.00 | 0.00 | 0.00 | 77 | 1008.8 |
| 20260902131607 | 57 | 148 | 3.5 | 6.1 | 0.00 | 0.00 | 0.00 | 77 | 1008.9 |
| 20260902130059 | 57 | 160 | 3.5 | 7.0 | 0.00 | 0.00 | 0.00 | 77 | 1009.1 |
| 20260902124606 | 57 | 207 | 4.3 | 7.8 | 0.00 | 0.00 | 0.00 | 78 | 1009.3 |
| 20260902123103 | 57 | 175 | 4.3 | 10.4 | 0.00 | 0.00 | 0.00 | 78 | 1009.5 |
| 20260902121601 | 57 | 193 | 3.5 | 10.4 | 0.00 | 0.00 | 0.00 | 78 | 1009.6 |
| 20260902120118 | 58 | 199 | 4.3 | 11.3 | 0.00 | 0.00 | 0.00 | 77 | 1009.8 |
| 20260902114604 | 57 | 193 | 4.3 | 10.4 | 0.00 | 0.00 | 0.00 | 78 | 1010.0 |
| 20260902113107 | 57 | 211 | 4.3 | 6.1 | 0.00 | 0.00 | 0.00 | 79 | 1010.1 |
| 20260902111613 | 57 | 156 | 3.5 | 7.8 | 0.00 | 0.00 | 0.00 | 79 | 1010.3 |
| 20260902110106 | 57 | 186 | 3.5 | 7.8 | 0.00 | 0.00 | 0.00 | 80 | 1010.4 |
| 20260902104623 | 57 | 161 | 2.6 | 6.1 | 0.00 | 0.00 | 0.00 | 81 | 1010.5 |
| 20260902103100 | 57 | 176 | 2.6 | 5.2 | 0.00 | 0.00 | 0.00 | 81 | 1010.6 |
| 20260902101601 | 57 | 209 | 3.5 | 7.8 | 0.00 | 0.00 | 0.00 | 80 | 1010.7 |
| 20260902100119 | 57 | 213 | 5.2 | 8.7 | 0.00 | 0.00 | 0.00 | 81 | 1010.7 |
| 20260902094555 | 57 | 176 | 4.3 | 10.4 | 0.00 | 0.00 | 0.00 | 80 | 1010.8 |
| 20260902093122 | 57 | 163 | 4.3 | 9.6 | 0.00 | 0.00 | 0.00 | 81 | 1011.0 |
| 20260902091552 | 56 | 203 | 4.3 | 8.7 | 0.00 | 0.00 | 0.00 | 82 | 1011.1 |
| 20260902090106 | 56 | 227 | 4.3 | 10.4 | 0.00 | 0.00 | 0.00 | 82 | 1011.2 |
| 20260902084607 | 57 | 194 | 3.5 | 9.6 | 0.00 | 0.00 | 0.00 | 82 | 1011.4 |
| 20260902083108 | 57 | 215 | 5.2 | 9.6 | 0.00 | 0.00 | 0.00 | 82 | 1011.4 |
| 20260902081620 | 57 | 185 | 4.3 | 7.8 | 0.00 | 0.00 | 0.00 | 83 | 1011.4 |
| 20260902080108 | 57 | 197 | 2.6 | 7.8 | 0.00 | 0.00 | 0.00 | 83 | 1011.3 |
| 20260902074559 | 58 | 194 | 2.6 | 5.2 | 0.00 | 0.00 | 0.00 | 82 | 1011.4 |
| 20260902073059 | 58 | 203 | 2.6 | 8.7 | 0.00 | 0.00 | 0.00 | 81 | 1011.6 |
| 20260902071602 | 58 | 218 | 5.2 | 10.4 | 0.00 | 0.00 | 0.00 | 80 | 1011.7 |
| 20260902070059 | 58 | 197 | 4.3 | 11.3 | 0.00 | 0.00 | 0.00 | 80 | 1011.7 |
| 20260902064558 | 58 | 171 | 3.5 | 11.3 | 0.00 | 0.00 | 0.00 | 80 | 1011.9 |
| 20260902063122 | 58 | 191 | 4.3 | 7.0 | 0.00 | 0.00 | 0.00 | 79 | 1012.0 |
| 20260902060126 | 59 | 167 | 3.5 | 8.7 | 0.00 | 0.00 | 0.00 | 78 | 1012.0 |
| 20260902054554 | 59 | 208 | 3.5 | 9.6 | 0.00 | 0.00 | 0.00 | 77 | 1012.3 |
| 20260902053105 | 59 | 193 | 2.6 | 7.8 | 0.00 | 0.00 | 0.00 | 77 | 1012.4 |
| 20260902051607 | 59 | 130 | 2.6 | 6.1 | 0.00 | 0.00 | 0.00 | 77 | 1012.3 |
| 20260902050055 | 59 | 211 | 4.3 | 12.2 | 0.00 | 0.00 | 0.00 | 77 | 1012.4 |
| 20260902044554 | 59 | 200 | 3.5 | 7.8 | 0.00 | 0.00 | 0.00 | 77 | 1012.3 |
| 20260902043111 | 60 | 235 | 4.3 | 8.7 | 0.00 | 0.00 | 0.00 | 77 | 1012.2 |
| 20260902041557 | 60 | 200 | 3.5 | 7.8 | 0.00 | 0.00 | 0.00 | 76 | 1012.3 |
| 20260902040107 | 60 | 203 | 1.7 | 5.2 | 0.00 | 0.00 | 0.00 | 76 | 1012.2 |
| 20260902034601 | 60 | 173 | 1.7 | 5.2 | 0.00 | 0.00 | 0.00 | 76 | 1012.1 |
| 20260902033112 | 60 | 190 | 1.7 | 4.3 | 0.00 | 0.00 | 0.00 | 75 | 1012.0 |
| 20260902031558 | 60 | 166 | 2.6 | 7.0 | 0.00 | 0.00 | 0.00 | 75 | 1012.0 |
| 20260902024603 | 61 | 191 | 3.5 | 7.0 | 0.00 | 0.00 | 0.00 | 73 | 1012.0 |
| 20260902023101 | 61 | 197 | 4.3 | 11.3 | 0.00 | 0.00 | 0.00 | 72 | 1011.9 |
| 20260902021605 | 62 | 205 | 2.6 | 6.1 | 0.00 | 0.00 | 0.00 | 71 | 1011.7 |
| 20260902020141 | 63 | 210 | 1.7 | 5.2 | 0.00 | 0.00 | 0.00 | 70 | 1011.7 |
| 20260902014602 | 63 | 188 | 3.5 | 7.8 | 0.00 | 0.00 | 0.00 | 70 | 1011.6 |
| 20260902013106 | 63 | 211 | 2.6 | 8.7 | 0.00 | 0.00 | 0.00 | 68 | 1011.6 |
| 20260902011555 | 63 | 223 | 4.3 | 7.0 | 0.00 | 0.00 | 0.00 | 67 | 1011.6 |
| 20260902010052 | 63 | 241 | 1.7 | 8.7 | 0.00 | 0.00 | 0.00 | 67 | 1011.5 |
| 20260902004603 | 64 | 210 | 2.6 | 9.6 | 0.00 | 0.00 | 0.00 | 66 | 1011.3 |